Weather History for GMAD - January, 2014

Change the Weather History Date:

Sunday, January 19, 2014

  Actual Average Record
Temperature  
Mean Temperature 58 °F -  
Max Temperature 66 °F - - ()
Min Temperature 50 °F - - ()
Degree Days  
Heating Degree Days 7    
Growing Degree Days 8 (Base 50)    
Moisture  
Dew Point 55 °F    
Average Humidity 85    
Maximum Humidity 94    
Minimum Humidity 68    
Precipitation  
Precipitation 0.28 in - - ()
Sea Level Pressure  
Sea Level Pressure 29.95 in    
Wind  
Wind Speed 7 mph ()    
Max Wind Speed 17 mph    
Max Gust Speed 28 mph    
Visibility 5.8 miles    
Events Rain    
T = Trace of Precipitation, MM = Missing Value Source: Averaged Metar Reports

Daily Weather History Graph

Daily Weather History Graph

Search for Another Location

Airport or City:

Trip Planner

Search our weather history database for the weather conditions in past years. The results will help you decide how hot, cold, wet, or windy it might be!

Date:

Astronomy

Jan. 19, 2014 Rise Set
Actual Time 7:34 AM WET 6:02 PM WET
Civil Twilight 7:08 AM WET 6:28 PM WET
Nautical Twilight 6:39 AM WET 6:57 PM WET
Astronomical Twilight 6:10 AM WET 7:26 PM WET
Moon 9:10 PM WET (1/19) 9:13 AM WET (1/19)
Length of Visible Light 11h 20m
Length of Day
10h 28m
Waning Gibbous, 90% of the Moon is Illuminated
Jan 19
Waning Gibbous
Jan 24
Last Quarter
Jan 30
New
Feb 6
First Quarter
Feb 14
Full

Hourly Weather History & Observations

Time (WET) Temp. Dew Point Humidity Pressure Visibility Wind Dir Wind Speed Gust Speed Precip Events Conditions
12:00 AM 52 °F 49 °F 87% 29.94 in 6 mi South 4.6 mph - -   Partly Cloudy
12:00 AM 51.8 °F 50.0 °F 94% 29.92 in 6.2 mi South 4.6 mph - N/A   Partly Cloudy
2:00 AM 53.6 °F 50.0 °F 88% 29.92 in 6.2 mi South 5.8 mph - N/A   Partly Cloudy
3:00 AM 54 °F 50 °F 83% 29.93 in 6 mi South 4.6 mph - -   Partly Cloudy
3:00 AM 53.6 °F 50.0 °F 88% 29.92 in 6.2 mi South 4.6 mph - N/A   Partly Cloudy
4:00 AM 55.4 °F 51.8 °F 88% 29.92 in 6.2 mi South 6.9 mph - N/A   Scattered Clouds
5:00 AM 55.4 °F 51.8 °F 88% 29.92 in 3.7 mi Calm Calm - N/A   Scattered Clouds
6:00 AM 55 °F 53 °F 89% 29.93 in 4 mi Calm Calm - - Rain Rain
6:00 AM 55.4 °F 53.6 °F 94% 29.92 in 3.7 mi Calm Calm - N/A   Scattered Clouds
7:00 AM 55.4 °F 53.6 °F 94% 29.92 in 3.7 mi Calm Calm - N/A   Scattered Clouds
8:00 AM 57.2 °F 53.6 °F 88% 29.92 in 6.2 mi Calm Calm - N/A   Mostly Cloudy
9:00 AM 58 °F 56 °F 89% 29.95 in 6 mi SW 8.1 mph - -   Partly Cloudy
9:00 AM 57.2 °F 55.4 °F 94% 29.95 in 6.2 mi SW 8.1 mph - N/A   Scattered Clouds
10:00 AM 60.8 °F 57.2 °F 88% 29.95 in 6.2 mi WSW 9.2 mph - N/A   Scattered Clouds
11:00 AM 64.4 °F 57.2 °F 77% 29.98 in 6.2 mi West 16.1 mph - N/A   Scattered Clouds
12:00 PM 65 °F 57 °F 69% 29.96 in 6 mi West 16.1 mph - -   Partly Cloudy
12:00 PM 66.2 °F 57.2 °F 73% 29.95 in 6.2 mi West 16.1 mph - N/A   Scattered Clouds
1:00 PM 66.2 °F 57.2 °F 73% 29.95 in 6.2 mi WSW 16.1 mph 27.6 mph N/A   Scattered Clouds
2:00 PM 62.6 °F 57.2 °F 82% 29.92 in 6.2 mi West 16.1 mph - N/A   Scattered Clouds
3:00 PM 65 °F 57 °F 68% 29.94 in 6 mi WSW 12.7 mph - -   Partly Cloudy
3:00 PM 64.4 °F 57.2 °F 77% 29.92 in 6.2 mi WSW 12.7 mph - N/A   Scattered Clouds
4:00 PM 64.4 °F 55.4 °F 73% 29.95 in 6.2 mi West 17.3 mph - N/A   Partly Cloudy
5:00 PM 62.6 °F 55.4 °F 77% 29.95 in 6.2 mi West 17.3 mph - N/A   Partly Cloudy
6:00 PM 61 °F 57 °F 81% 29.97 in 6 mi WSW 11.5 mph - -   Mostly Cloudy
6:00 PM 60.8 °F 57.2 °F 88% 29.95 in 6.2 mi WSW 11.5 mph - N/A   Scattered Clouds
7:00 PM 60.8 °F 57.2 °F 88% 29.98 in 6.2 mi WSW 9.2 mph - N/A   Scattered Clouds
8:00 PM 60.8 °F 57.2 °F 88% 29.98 in 6.2 mi WSW 11.5 mph - N/A   Scattered Clouds
9:00 PM 59 °F 56 °F 87% 29.99 in 6 mi WSW 8.1 mph - -   Partly Cloudy
9:00 PM 59.0 °F 57.2 °F 94% 29.98 in 6.2 mi WSW 8.1 mph - N/A   Partly Cloudy
10:00 PM 59.0 °F 55.4 °F 88% 29.98 in 6.2 mi SSW 3.5 mph - N/A   Partly Cloudy
11:00 PM 57.2 °F 55.4 °F 94% 29.98 in 6.2 mi SSW 5.8 mph - N/A   Partly Cloudy